Wind_Speed
60 59 58 57 55 52 49 45 42 38 34 31 30 29 29 30 30 30 30 29 30 31 30 29 28 26 25 24 23 23 21 19 18 25 28 20 22 20 19 20 19 19 21 19 20
63 61 60 60 58 56 52 49 45 42 38 35 33 31 31 30 30 32 31 30 29 29 30 31 29 29 28 26 25 24 22 22 29 24 25 24 24 22 21 22 23 22 22 21 22
65 63 62 60 59 58 56 53 49 46 42 39 37 35 34 33 32 30 30 30 30 30 30 30 29 29 29 28 26 26 27 27 25 25 26 25 24 25 25 24 26 24 25 24 23
66 66 64 63 61 59 57 56 52 49 47 42 41 40 38 36 37 31 31 28 29 29 29 30 30 30 29 29 27 27 27 27 27 27 27 26 25 27 27 28 27 28 28 28 28
69 66 65 65 64 62 59 57 54 51 50 46 44 44 42 40 40 34 33 32 30 29 29 29 29 30 30 29 28 28 28 29 30 29 29 29 28 29 31 30 30 30 32 31 32
70 70 66 65 65 64 62 61 58 54 52 51 48 47 46 43 41 40 37 36 33 32 31 32 30 30 30 29 30 26 29 30 31 31 31 30 31 30 36 31 35 36 36 36 36
78 71 69 67 65 65 63 62 59 57 55 51 51 51 49 46 45 43 40 39 36 35 35 34 32 33 31 32 30 29 30 31 31 31 33 31 32 39 38 34 37 41 40 39 41
85 83 73 72 69 67 64 63 61 59 57 54 54 53 52 49 48 46 43 41 40 40 39 36 36 36 34 33 31 31 32 31 38 31 37 34 34 42 39 35 38 43 43 45 49
90 89 77 75 73 71 67 64 62 62 59 57 55 55 53 49 50 48 45 44 44 42 42 40 40 39 37 35 35 33 32 33 36 31 34 35 33 39 48 46 44 45 48 45 41
84 88 79 75 75 76 70 69 65 64 61 60 59 57 55 50 50 48 47 46 44 44 44 42 40 39 37 34 35 29 32 35 35 38 39 39 44 45 45 49 48 37 34 35 33
83 82 84 85 76 74 74 76 72 69 66 63 60 56 55 50 51 50 47 47 46 46 44 41 42 38 34 38 36 37 36 40 37 40 50 45 44 47 45 40 37 31 32 33 33
78 90 88 89 83 78 76 73 68 69 67 64 63 58 56 54 52 51 50 49 47 44 42 42 41 39 40 38 39 42 40 42 43 46 54 47 47 42 42 37 34 33 33 34 34
62 67 83 70 86 84 79 72 70 71 70 70 67 64 62 61 57 54 52 51 50 48 48 46 44 45 43 43 43 45 46 42 44 50 47 44 45 36 43 34 34 34 34 34 33
78 72 65 66 79 83 86 82 79 75 76 75 70 67 68 65 62 59 56 55 51 51 53 49 51 51 48 53 52 53 50 51 48 48 45 43 39 37 40 33 34 34 34 33 31
93 85 65 72 62 76 79 67 81 87 85 86 78 70 67 66 63 60 58 58 60 55 55 53 52 56 53 49 53 49 53 51 45 45 41 41 43 29 40 44 31 32 31 30 28
99 76 89 65 56 57 71 76 78 91 93 93 91 85 75 71 68 66 65 63 58 57 60 58 61 60 53 52 49 52 45 45 44 40 45 38 35 34 31 42 35 31 29 28 28
106 97 80 73 65 52 56 63 65 74 82 88 83 85 83 78 73 72 67 68 68 66 66 63 60 56 56 57 54 51 47 48 44 42 43 35 42 37 37 44 38 31 28 29 29
103 105 105 94 73 62 53 61 64 65 63 71 75 82 84 81 80 76 74 73 71 67 63 63 62 63 58 56 56 52 47 41 38 37 38 38 45 40 40 41 33 31 29 29 30
107 108 107 103 97 80 63 61 64 62 59 65 67 72 72 67 72 80 82 80 73 69 66 64 61 64 59 53 55 54 51 43 41 47 46 41 47 42 39 41 32 29 30 31 32
101 107 109 99 96 99 86 79 57 54 53 54 63 66 67 62 57 59 67 64 64 65 65 65 64 62 60 53 52 52 50 46 45 47 45 42 38 37 46 39 28 30 32 33 35
100 100 107 103 94 96 99 93 70 58 53 50 57 58 57 56 55 53 51 50 53 58 59 64 60 61 56 52 50 48 51 45 43 45 40 39 37 41 45 39 30 30 31 34 37
100 103 101 101 94 85 90 102 77 70 62 55 52 48 55 52 52 51 49 49 48 45 48 53 56 55 52 49 48 49 48 46 43 40 37 37 40 42 41 38 31 32 35 38 40
101 101 99 98 98 95 88 89 92 71 63 65 56 54 47 43 37 36 34 44 52 50 51 49 54 52 56 54 52 49 42 40 39 37 39 39 38 38 37 39 39 35 36 38 43
97 105 104 103 78 91 70 93 93 92 71 61 66 64 61 49 48 43 38 39 47 49 47 48 49 49 51 42 38 40 37 33 35 40 36 39 35 38 41 39 38 43 43 44 46
90 105 104 99 100 88 80 99 92 93 93 68 60 55 61 61 53 47 45 49 46 49 53 54 54 54 51 43 45 42 38 38 42 38 41 31 36 37 39 43 43 45 42 44 43
71 99 99 97 81 77 80 73 83 96 91 93 57 51 50 58 59 62 63 51 52 53 58 58 47 50 47 45 44 39 42 40 42 37 41 43 47 39 43 41 41 49 40 45 50
56 82 90 95 80 76 72 74 86 78 92 82 72 52 48 44 42 46 45 56 53 53 56 44 50 50 50 41 40 47 45 42 41 46 47 48 43 40 46 44 41 49 45 47 53
Wind_Direction
230 230 230 230 228 230 230 230 232 233 234 235 235 232 233 232 228 228 230 231 233 235 236 237 237 236 233 233 236 239 241 245 240 247 256 254 257 260 260 264 262 267 276 282 287
230 230 229 230 230 229 229 230 230 231 233 235 235 234 233 232 232 232 232 233 233 233 234 236 234 235 238 236 236 237 238 229 250 255 259 258 260 265 265 269 269 276 279 280 280
233 229 230 230 230 230 230 230 229 230 232 236 236 234 234 233 233 232 232 232 233 234 235 236 235 235 237 237 236 237 233 249 247 252 255 259 264 268 270 271 275 280 280 283 280
231 230 229 230 230 230 230 231 230 230 231 234 236 235 234 234 235 232 234 233 234 234 233 233 235 235 235 237 237 236 239 242 247 248 253 258 262 267 272 272 279 280 283 285 286
231 231 230 229 230 230 230 230 231 231 233 234 234 234 234 234 236 233 235 235 232 232 233 233 233 236 236 237 239 240 244 247 251 251 255 259 262 267 269 273 276 278 279 281 285
231 230 230 230 230 230 230 231 232 232 234 235 233 232 232 234 236 235 234 235 234 232 234 234 235 236 239 239 241 244 246 249 255 257 259 263 268 270 271 277 279 281 281 281 280
229 229 229 230 230 231 231 231 231 233 233 232 232 232 233 233 235 236 235 234 235 235 235 235 236 238 240 241 244 246 251 255 258 259 264 267 270 270 272 278 277 280 280 281 284
224 228 228 229 229 230 229 230 231 231 233 232 232 233 234 233 235 235 234 235 235 236 235 237 239 240 241 244 247 251 254 258 261 265 268 270 271 278 275 275 274 278 282 288 290
223 225 226 228 229 229 229 229 230 231 231 231 231 232 233 232 235 234 234 235 235 236 237 237 240 242 243 247 250 253 257 259 264 265 269 273 271 277 284 284 281 281 284 291 288
221 227 220 227 227 229 228 230 229 231 230 231 232 231 233 229 233 233 233 235 236 237 238 238 241 244 245 249 252 255 256 255 265 272 272 272 279 277 284 283 286 286 284 286 283
218 224 227 225 226 228 228 229 231 232 233 232 233 231 233 230 229 232 233 234 235 236 237 238 239 242 247 249 251 257 260 267 269 275 278 283 279 281 284 283 282 283 281 281 282
208 218 222 228 225 228 228 228 231 234 235 234 234 233 234 231 229 230 233 234 235 236 237 238 243 250 247 250 256 262 266 270 273 272 278 283 280 283 279 279 280 279 278 281 285
206 211 221 212 222 225 226 228 232 233 233 231 232 231 231 233 232 231 233 235 237 236 241 245 244 242 244 248 257 263 266 270 275 277 278 283 279 276 272 278 277 277 281 283 283
206 215 207 211 226 220 228 229 232 232 235 233 231 230 232 232 233 231 233 234 237 240 243 242 243 244 251 261 258 258 266 265 273 275 281 275 275 274 280 273 277 282 282 281 281
206 214 205 199 205 223 227 224 233 232 237 231 230 233 233 233 234 234 231 233 235 240 244 245 247 257 260 256 257 258 265 270 269 276 271 267 275 270 273 284 277 280 278 279 276
212 206 216 201 218 214 215 221 228 229 235 236 236 231 230 232 233 233 232 233 236 239 240 242 246 252 257 259 263 262 268 268 272 268 264 265 268 275 277 279 284 282 277 273 272
215 209 210 205 213 211 214 214 225 228 230 236 241 239 231 233 234 237 236 239 242 244 249 252 254 252 254 257 261 265 265 269 262 256 266 268 269 271 271 278 288 277 274 270 272
214 215 214 214 203 209 215 216 226 221 224 233 237 238 233 237 237 238 241 243 242 241 244 248 248 250 252 252 260 261 261 250 255 258 264 265 269 273 276 280 277 274 273 272 275
221 216 215 222 216 215 213 225 221 219 220 225 227 228 232 234 234 239 243 245 247 249 251 254 250 251 250 253 256 256 247 248 249 256 262 265 276 280 279 278 274 274 273 274 272
222 223 217 216 223 222 217 224 221 218 216 225 228 231 233 236 236 236 238 239 239 240 242 243 248 253 250 252 249 243 246 244 245 252 259 269 273 276 279 277 273 270 272 272 269
219 220 222 219 220 228 229 221 218 218 219 223 226 228 230 236 235 235 237 242 245 243 241 242 246 249 245 242 241 239 245 249 250 251 256 268 271 265 269 277 279 273 272 271 270
217 218 221 225 223 229 233 228 215 224 223 225 220 222 229 235 236 236 239 236 236 236 237 234 236 238 244 239 236 237 242 243 247 255 261 255 254 261 268 277 275 274 277 275 273
216 217 217 219 221 219 220 228 221 219 217 220 222 224 221 223 226 228 231 235 234 230 228 223 226 224 232 234 235 239 243 248 248 246 249 249 262 263 269 271 275 278 274 272 270
211 214 214 215 216 223 221 233 229 219 219 224 226 229 229 229 230 229 226 226 228 224 221 223 229 232 239 244 239 237 240 238 240 242 249 259 262 271 270 269 270 271 272 268 269
210 212 214 214 214 215 221 228 234 226 221 221 219 226 230 230 229 227 238 234 238 229 219 223 225 226 226 223 231 231 233 241 248 255 252 265 266 274 267 273 269 269 272 270 267
211 209 208 209 214 215 226 223 229 234 229 220 220 218 222 234 240 245 239 240 241 240 231 225 221 221 219 221 229 236 233 243 248 257 267 271 272 274 270 269 264 270 266 265 270
209 210 206 203 199 204 218 225 234 232 229 227 218 215 218 226 219 213 222 223 225 224 218 209 213 217 220 229 235 234 238 260 267 269 269 267 277 267 263 264 265 271 268 271 278
Height
5798 5804 5810 5816 5821 5826 5830 5835 5840 5844 5848 5851 5854 5857 5859 5862 5864 5867 5870 5873 5875 5878 5880 5883 5886 5888 5889 5892 5894 5896 5899 5900 5900 5898 5895 5898 5898 5899 5899 5898 5899 5898 5898 5897 5896
5787 5793 5800 5806 5812 5817 5822 5827 5832 5837 5841 5844 5848 5851 5854 5857 5859 5861 5865 5868 5871 5873 5875 5877 5881 5883 5886 5888 5890 5892 5894 5893 5891 5893 5892 5893 5893 5894 5895 5894 5894 5894 5894 5893 5891
5777 5781 5789 5796 5802 5808 5814 5818 5824 5829 5833 5837 5841 5845 5847 5851 5854 5857 5859 5862 5865 5868 5871 5873 5876 5879 5880 5882 5884 5886 5887 5887 5888 5889 5888 5889 5889 5889 5888 5888 5888 5889 5887 5887 5887
5764 5771 5777 5785 5791 5798 5804 5810 5815 5820 5825 5829 5834 5837 5841 5844 5847 5852 5854 5857 5860 5863 5866 5868 5871 5873 5876 5877 5879 5881 5882 5882 5883 5883 5883 5884 5885 5884 5883 5883 5882 5882 5882 5880 5880
5752 5759 5766 5773 5780 5787 5793 5800 5805 5810 5816 5821 5825 5829 5833 5837 5839 5845 5848 5851 5855 5858 5861 5863 5865 5868 5870 5873 5875 5876 5877 5878 5878 5879 5879 5879 5879 5880 5878 5877 5877 5877 5876 5875 5874
5737 5746 5754 5762 5768 5775 5782 5789 5795 5800 5806 5812 5815 5820 5824 5830 5834 5837 5842 5845 5848 5852 5854 5857 5860 5862 5865 5867 5868 5872 5871 5872 5873 5873 5874 5875 5874 5875 5871 5874 5871 5870 5870 5869 5869
5722 5732 5741 5750 5756 5763 5770 5777 5783 5789 5795 5802 5806 5810 5815 5821 5826 5829 5834 5838 5843 5845 5848 5851 5854 5855 5859 5859 5863 5864 5866 5867 5867 5868 5868 5870 5869 5863 5864 5867 5865 5861 5861 5861 5860
5705 5717 5727 5736 5744 5751 5757 5765 5771 5777 5784 5790 5796 5800 5806 5813 5817 5821 5826 5831 5835 5838 5841 5844 5846 5849 5851 5855 5856 5858 5860 5861 5856 5863 5860 5864 5865 5856 5858 5860 5858 5855 5854 5853 5851
5688 5700 5712 5722 5730 5737 5744 5752 5759 5766 5773 5779 5785 5788 5796 5804 5808 5813 5818 5823 5826 5830 5834 5836 5839 5842 5845 5848 5850 5851 5853 5853 5851 5856 5854 5854 5857 5854 5847 5848 5849 5849 5846 5845 5842
5674 5684 5696 5706 5715 5723 5730 5738 5747 5754 5760 5766 5772 5779 5787 5795 5799 5804 5808 5813 5818 5821 5825 5829 5832 5835 5838 5841 5843 5845 5845 5846 5847 5845 5846 5848 5846 5846 5845 5839 5839 5839 5837 5836 5834
5660 5670 5680 5692 5700 5707 5716 5726 5734 5741 5748 5757 5764 5771 5777 5785 5789 5794 5799 5803 5809 5811 5816 5820 5822 5827 5833 5832 5834 5835 5838 5837 5841 5839 5833 5838 5838 5837 5833 5832 5831 5831 5829 5828 5826
5644 5656 5666 5673 5682 5693 5702 5714 5725 5728 5738 5744 5751 5760 5766 5774 5780 5784 5790 5794 5799 5804 5807 5811 5815 5822 5821 5823 5827 5828 5829 5831 5831 5830 5826 5829 5827 5828 5823 5824 5825 5823 5822 5821 5820
5629 5642 5651 5658 5666 5674 5690 5704 5708 5712 5720 5726 5736 5746 5753 5760 5768 5774 5780 5784 5790 5794 5797 5802 5808 5808 5811 5815 5817 5820 5820 5822 5821 5818 5819 5820 5816 5817 5813 5817 5816 5815 5814 5813 5812
5615 5629 5635 5642 5649 5663 5674 5688 5690 5698 5699 5707 5721 5730 5738 5747 5755 5762 5770 5774 5780 5784 5786 5790 5794 5799 5803 5806 5808 5810 5811 5811 5813 5812 5813 5809 5810 5806 5805 5810 5809 5808 5807 5806 5806
5600 5614 5622 5627 5637 5646 5668 5672 5675 5681 5673 5693 5704 5718 5728 5736 5746 5753 5759 5761 5766 5772 5776 5783 5787 5787 5792 5797 5798 5802 5799 5802 5803 5804 5803 5802 5798 5806 5798 5795 5802 5801 5800 5800 5799
5582 5597 5606 5610 5621 5638 5646 5653 5654 5655 5653 5673 5684 5701 5711 5722 5730 5734 5742 5748 5755 5759 5763 5770 5770 5775 5781 5785 5789 5789 5793 5793 5794 5794 5790 5795 5796 5794 5793 5789 5793 5793 5793 5793 5792
5563 5579 5590 5598 5608 5623 5632 5631 5628 5624 5649 5661 5670 5684 5700 5708 5715 5719 5730 5735 5742 5747 5754 5759 5760 5767 5771 5773 5779 5779 5784 5785 5785 5782 5784 5788 5784 5788 5786 5783 5785 5785 5786 5786 5786
5543 5557 5573 5583 5595 5604 5614 5611 5606 5627 5642 5651 5659 5668 5684 5694 5703 5707 5713 5723 5731 5737 5743 5743 5749 5749 5758 5766 5768 5771 5772 5775 5773 5775 5776 5776 5773 5779 5778 5778 5778 5778 5779 5779 5779
5520 5531 5548 5562 5577 5589 5595 5589 5599 5619 5633 5641 5647 5654 5665 5676 5687 5690 5699 5710 5721 5726 5729 5731 5736 5740 5745 5754 5759 5758 5757 5765 5767 5764 5764 5769 5765 5769 5771 5768 5770 5770 5770 5770 5769
5500 5514 5528 5549 5561 5571 5570 5576 5596 5611 5622 5624 5636 5646 5655 5665 5674 5680 5683 5697 5704 5711 5718 5723 5724 5726 5732 5739 5743 5744 5748 5752 5753 5754 5756 5760 5764 5763 5756 5759 5763 5763 5762 5762 5761
5481 5491 5514 5530 5545 5542 5545 5564 5585 5602 5611 5619 5630 5638 5646 5654 5662 5669 5677 5689 5693 5699 5707 5711 5716 5715 5720 5725 5731 5736 5735 5741 5745 5745 5749 5753 5756 5751 5747 5751 5754 5754 5754 5753 5752
5462 5473 5500 5513 5521 5524 5531 5551 5579 5590 5602 5610 5619 5630 5638 5645 5652 5658 5667 5675 5680 5686 5690 5698 5701 5705 5712 5717 5719 5722 5725 5727 5732 5739 5742 5742 5744 5742 5741 5743 5745 5746 5745 5743 5742
5443 5468 5481 5493 5498 5512 5524 5538 5566 5576 5587 5599 5609 5623 5631 5636 5640 5649 5655 5660 5668 5673 5678 5683 5685 5693 5696 5702 5705 5710 5718 5721 5724 5728 5729 5730 5737 5736 5737 5734 5735 5735 5733 5733 5731
5426 5442 5456 5468 5493 5503 5514 5524 5543 5564 5577 5588 5603 5611 5618 5626 5632 5641 5645 5653 5658 5663 5669 5674 5680 5685 5688 5698 5703 5703 5707 5712 5713 5714 5722 5723 5727 5727 5725 5726 5727 5725 5722 5722 5720
5405 5420 5445 5453 5474 5487 5503 5518 5530 5545 5561 5580 5589 5598 5607 5617 5625 5631 5635 5643 5649 5653 5657 5663 5668 5673 5677 5684 5687 5692 5697 5700 5700 5708 5708 5720 5716 5723 5714 5717 5717 5713 5713 5711 5709
5394 5408 5429 5453 5467 5485 5491 5502 5518 5531 5548 5566 5578 5592 5601 5608 5614 5624 5629 5633 5636 5642 5647 5652 5658 5663 5666 5670 5674 5680 5688 5689 5690 5697 5699 5704 5704 5711 5705 5705 5704 5702 5699 5698 5698
5382 5400 5420 5442 5458 5472 5482 5495 5508 5526 5539 5560 5580 5584 5591 5603 5608 5614 5617 5620 5626 5632 5636 5642 5646 5650 5657 5660 5663 5665 5678 5677 5684 5686 5688 5688 5698 5698 5692 5690 5691 5689 5687 5687 5686